• In Hungary
  • List of Countries
  • For 7 days
  • Water Temperature
  • Satellite Maps
  • Weather Map
  • News
  • Weather Widgets
  • user-avatar
    Login

    Hourly Weather Parakou

    Today, 19 September, Wednesday

    Time Temperature Precipitation Wind Pressure Humidity
    00:00 +25°C° 0 mm 1 mps 728 mmHg 96%
    01:00 +24°C° 0 mm 1 mps 728 mmHg 97%
    02:00 +24°C° 0 mm 1 mps 727 mmHg 98%
    03:00 +24°C° 0 mm 1 mps 727 mmHg 98%
    04:00 +24°C° 0 mm 1 mps 727 mmHg 98%
    05:00 +24°C° 0 mm 1 mps 727 mmHg 98%
    06:00 +23°C° 0 mm 1 mps 728 mmHg 97%
    07:00 +25°C° 0 mm 1 mps 728 mmHg 90%
    08:00 +26°C° 0 mm 2 mps 728 mmHg 84%
    09:00 +28°C° 0 mm 2 mps 728 mmHg 77%
    10:00 +29°C° 0 mm 2 mps 728 mmHg 71%
    11:00 +31°C° 0 mm 2 mps 728 mmHg 65%
    12:00 +32°C° 0 mm 2 mps 728 mmHg 59%
    13:00 +32°C° 0 mm 2 mps 727 mmHg 58%
    14:00 +34°C° 0 mm 2 mps 726 mmHg 58%
    15:00 +33°C° 0 mm 1 mps 726 mmHg 57%
    16:00 +31°C° 0 mm 1 mps 726 mmHg 63%
    17:00 +30°C° 0 mm 1 mps 726 mmHg 68%
    18:00 +29°C° 0 mm 1 mps 726 mmHg 74%
    19:00 +28°C° 0 mm 1 mps 726 mmHg 77%
    20:00 +27°C° 0 mm 1 mps 727 mmHg 79%
    21:00 +27°C° 0 mm 1 mps 727 mmHg 82%
    22:00 +26°C° 0 mm 1 mps 727 mmHg 84%
    23:00 +26°C° 0 mm 1 mps 727 mmHg 87%

    Tomorrow, 20 September, Thursday

    Time Temperature Precipitation Wind Pressure Humidity
    00:00 +26°C° 0 mm 1 mps 727 mmHg 89%
    01:00 +25°C° 0.1 mm 1 mps 727 mmHg 91%
    02:00 +25°C° 0.1 mm 1 mps 726 mmHg 93%
    03:00 +25°C° 0.1 mm 1 mps 726 mmHg 95%
    04:00 +24°C° 0 mm 1 mps 726 mmHg 96%
    05:00 +24°C° 0 mm 1 mps 726 mmHg 97%
    06:00 +24°C° 0 mm 1 mps 726 mmHg 97%
    07:00 +26°C° 0 mm 1 mps 727 mmHg 91%
    08:00 +27°C° 0 mm 2 mps 727 mmHg 85%
    09:00 +29°C° 0 mm 2 mps 728 mmHg 78%
    10:00 +30°C° 2.5 mm 2 mps 728 mmHg 76%
    11:00 +31°C° 2.5 mm 1 mps 727 mmHg 75%
    12:00 +32°C° 2.5 mm 1 mps 727 mmHg 73%
    13:00 +31°C° 1.9 mm 1 mps 726 mmHg 75%
    14:00 +31°C° 1.9 mm 1 mps 726 mmHg 76%
    15:00 +30°C° 1.9 mm 1 mps 725 mmHg 78%
    16:00 +29°C° 0.1 mm 1 mps 725 mmHg 81%
    17:00 +28°C° 0.1 mm 1 mps 725 mmHg 83%
    18:00 +27°C° 0.1 mm 1 mps 725 mmHg 85%
    19:00 +27°C° 0 mm 1 mps 726 mmHg 85%
    20:00 +26°C° 0 mm 1 mps 726 mmHg 85%
    21:00 +24°C° 0 mm 0 mps 727 mmHg 85%
    22:00 +24°C° 0 mm 0 mps 727 mmHg 86%
    23:00 +26°C° 0 mm 1 mps 727 mmHg 87%

    Day after tomorrow, 21 September, Friday

    Time Temperature Precipitation Wind Pressure Humidity
    00:00 +25°C° 0 mm 1 mps 727 mmHg 88%
    01:00 +25°C° 0.8 mm 1 mps 727 mmHg 90%
    02:00 +25°C° 0.8 mm 1 mps 726 mmHg 92%
    03:00 +25°C° 0.8 mm 1 mps 726 mmHg 94%
    04:00 +25°C° 0 mm 1 mps 726 mmHg 94%
    05:00 +24°C° 0 mm 1 mps 726 mmHg 94%
    06:00 +24°C° 0 mm 1 mps 726 mmHg 95%
    07:00 +25°C° 0 mm 2 mps 727 mmHg 93%
    08:00 +26°C° 0 mm 2 mps 727 mmHg 90%
    09:00 +27°C° 0 mm 3 mps 728 mmHg 88%
    10:00 +28°C° 0 mm 2 mps 728 mmHg 82%
    11:00 +29°C° 0 mm 2 mps 727 mmHg 77%
    12:00 +30°C° 0 mm 2 mps 727 mmHg 72%
    13:00 +30°C° 0.4 mm 2 mps 726 mmHg 75%
    14:00 +30°C° 0.4 mm 1 mps 726 mmHg 77%
    15:00 +29°C° 0.4 mm 1 mps 725 mmHg 80%
    16:00 +29°C° 0.4 mm 1 mps 725 mmHg 83%
    17:00 +28°C° 0.4 mm 1 mps 726 mmHg 86%
    18:00 +27°C° 0.4 mm 1 mps 726 mmHg 89%
    19:00 +26°C° 0.2 mm 1 mps 727 mmHg 89%
    20:00 +26°C° 0.2 mm 1 mps 727 mmHg 90%
    21:00 +25°C° 0.2 mm 1 mps 728 mmHg 91%
    22:00 +25°C° 0 mm 1 mps 727 mmHg 92%
    23:00 +25°C° 0 mm 1 mps 727 mmHg 93%

    22 September, Saturday

    Time Temperature Precipitation Wind Pressure Humidity
    00:00 +24°C° 0 mm 1 mps 727 mmHg 94%
    01:00 +24°C° 0 mm 1 mps 726 mmHg 95%
    02:00 +24°C° 0 mm 1 mps 726 mmHg 96%
    03:00 +24°C° 0 mm 1 mps 726 mmHg 97%
    04:00 +24°C° 0.2 mm 1 mps 726 mmHg 97%
    05:00 +24°C° 0.2 mm 1 mps 727 mmHg 97%
    06:00 +24°C° 0.2 mm 1 mps 727 mmHg 98%
    07:00 +25°C° 0 mm 2 mps 728 mmHg 93%
    08:00 +26°C° 0 mm 2 mps 728 mmHg 89%
    09:00 +28°C° 0 mm 2 mps 729 mmHg 85%
    10:00 +28°C° 2 mm 2 mps 728 mmHg 83%
    11:00 +29°C° 2 mm 2 mps 728 mmHg 82%
    12:00 +29°C° 2 mm 2 mps 727 mmHg 80%
    13:00 +29°C° 1.5 mm 1 mps 727 mmHg 81%
    14:00 +28°C° 1.5 mm 1 mps 726 mmHg 82%
    15:00 +28°C° 1.5 mm 1 mps 725 mmHg 83%
    16:00 +27°C° 0 mm 1 mps 726 mmHg 85%
    17:00 +27°C° 0 mm 1 mps 726 mmHg 88%
    18:00 +26°C° 0 mm 1 mps 727 mmHg 91%
    19:00 +26°C° 0 mm 1 mps 727 mmHg 92%
    20:00 +23°C° 0 mm 0 mps 727 mmHg 92%
    21:00 +23°C° 0 mm 0 mps 728 mmHg 93%
    22:00 +23°C° 0 mm 0 mps 727 mmHg 93%
    23:00 +22°C° 0 mm 0 mps 727 mmHg 93%

    23 September, Sunday

    Time Temperature Precipitation Wind Pressure Humidity
    00:00 +22°C° 0 mm 0 mps 727 mmHg 93%
    01:00 +24°C° 0 mm 1 mps 727 mmHg 93%
    02:00 +24°C° 0 mm 1 mps 727 mmHg 93%
    03:00 +24°C° 0 mm 1 mps 727 mmHg 94%
    04:00 +24°C° 0.5 mm 1 mps 727 mmHg 94%
    05:00 +24°C° 0.5 mm 1 mps 727 mmHg 95%
    06:00 +24°C° 0.5 mm 1 mps 728 mmHg 95%
    07:00 +24°C° 0.4 mm 1 mps 728 mmHg 95%
    08:00 +25°C° 0.4 mm 1 mps 729 mmHg 94%
    09:00 +25°C° 0.4 mm 2 mps 729 mmHg 94%
    10:00 +26°C° 1 mm 1 mps 729 mmHg 88%
    11:00 +28°C° 1 mm 1 mps 728 mmHg 83%
    12:00 +29°C° 1 mm 1 mps 728 mmHg 78%
    13:00 +29°C° 0.1 mm 1 mps 727 mmHg 77%
    14:00 +29°C° 0.1 mm 1 mps 727 mmHg 77%
    15:00 +29°C° 0.1 mm 1 mps 726 mmHg 77%
    16:00 +28°C° 0 mm 1 mps 726 mmHg 81%
    17:00 +27°C° 0 mm 1 mps 726 mmHg 85%
    18:00 +26°C° 0 mm 1 mps 726 mmHg 89%
    19:00 +26°C° 0 mm 1 mps 727 mmHg 90%
    20:00 +23°C° 0 mm 0 mps 727 mmHg 91%
    21:00 +23°C° 0 mm 0 mps 728 mmHg 92%
    22:00 +22°C° 0 mm 0 mps 727 mmHg 92%
    23:00 +22°C° 0 mm 0 mps 727 mmHg 92%

    24 September, Monday

    Time Temperature Precipitation Wind Pressure Humidity
    00:00 +22°C° 0 mm 0 mps 727 mmHg 92%
    01:00 +22°C° 0 mm 0 mps 727 mmHg 93%
    02:00 +22°C° 0 mm 0 mps 726 mmHg 94%
    03:00 +22°C° 0 mm 0 mps 726 mmHg 94%
    04:00 +24°C° 0 mm 1 mps 727 mmHg 94%
    05:00 +24°C° 0 mm 1 mps 727 mmHg 95%
    06:00 +24°C° 0 mm 1 mps 727 mmHg 95%
    07:00 +25°C° 0 mm 1 mps 728 mmHg 91%
    08:00 +26°C° 0 mm 2 mps 728 mmHg 88%
    09:00 +28°C° 0 mm 2 mps 729 mmHg 84%
    10:00 +29°C° 0.1 mm 2 mps 728 mmHg 80%
    11:00 +30°C° 0.1 mm 2 mps 728 mmHg 77%
    12:00 +31°C° 0.1 mm 2 mps 727 mmHg 73%
    13:00 +31°C° 1 mm 2 mps 727 mmHg 73%
    14:00 +31°C° 1 mm 2 mps 726 mmHg 74%
    15:00 +31°C° 1 mm 2 mps 726 mmHg 74%
    16:00 +29°C° 0.3 mm 1 mps 726 mmHg 79%
    17:00 +28°C° 0.3 mm 1 mps 726 mmHg 84%
    18:00 +25°C° 0.3 mm 0 mps 727 mmHg 89%
    19:00 +26°C° 2.2 mm 1 mps 727 mmHg 90%
    20:00 +26°C° 2.2 mm 1 mps 728 mmHg 92%
    21:00 +25°C° 2.2 mm 1 mps 728 mmHg 94%
    22:00 +25°C° 0 mm 1 mps 728 mmHg 94%
    23:00 +25°C° 0 mm 1 mps 727 mmHg 94%
    Show more